Radiation Dose at Monitoring Post of Fukushima Daini Nuclear Power Station
Date,Time,MP-1(microSv/h),MP-2(microSv/h),MP-3(microSv/h),MP-4(microSv/h),MP-5(microSv/h),MP-6(microSv/h),MP-7(microSv/h),Wind Direction,Wind Velocity(m/s),Rain
2023/07/13,00:00,0.141,0.131,0.205,0.194,0.204,0.113,0.073,north,0.8,No
2023/07/13,00:10,0.142,0.129,0.204,0.195,0.204,0.113,0.073,northeast,1.1,No
2023/07/13,00:20,0.143,0.130,0.203,0.196,0.207,0.114,0.074,northeast,0.9,No
2023/07/13,00:30,0.141,0.132,0.204,0.195,0.207,0.112,0.073,northeast,0.7,No
2023/07/13,00:40,0.141,0.130,0.205,0.196,0.205,0.113,0.074,northeast,0.8,No
2023/07/13,00:50,0.142,0.131,0.203,0.198,0.205,0.113,0.074,north-northwest,1.7,Yes
2023/07/13,01:00,0.142,0.131,0.203,0.197,0.208,0.114,0.073,west-northwest,3.0,Yes
2023/07/13,01:10,0.141,0.129,0.205,0.194,0.206,0.114,0.073,west,2.6,Yes
2023/07/13,01:20,0.143,0.131,0.204,0.198,0.204,0.114,0.075,south-southwest,1.8,Yes
2023/07/13,01:30,0.143,0.131,0.203,0.198,0.207,0.114,0.074,south-southeast,2.5,Yes
2023/07/13,01:40,0.142,0.131,0.205,0.196,0.209,0.114,0.075,south-southwest,3.4,Yes
2023/07/13,01:50,0.143,0.132,0.205,0.196,0.208,0.115,0.076,west-southwest,3.1,Yes
2023/07/13,02:00,0.145,0.132,0.205,0.198,0.205,0.114,0.076,southwest,1.7,Yes
2023/07/13,02:10,0.142,0.130,0.206,0.195,0.208,0.114,0.075,southwest,1.5,Yes
2023/07/13,02:20,0.142,0.131,0.205,0.196,0.208,0.115,0.075,southwest,1.2,Yes
2023/07/13,02:30,0.143,0.132,0.204,0.197,0.205,0.114,0.075,west-southwest,1.7,Yes
2023/07/13,02:40,0.142,0.131,0.206,0.196,0.205,0.114,0.074,west-southwest,1.8,Yes
2023/07/13,02:50,0.142,0.132,0.205,0.195,0.209,0.116,0.075,northwest,0.9,Yes
2023/07/13,03:00,0.143,0.132,0.204,0.197,0.207,0.115,0.075,west-northwest,1.5,No
2023/07/13,03:10,0.143,0.131,0.205,0.196,0.205,0.114,0.075,southwest,0.7,No
2023/07/13,03:20,0.141,0.131,0.205,0.195,0.208,0.114,0.074,southwest,1.6,No
2023/07/13,03:30,0.143,0.132,0.203,0.197,0.208,0.114,0.074,southwest,1.9,No
2023/07/13,03:40,0.143,0.131,0.206,0.197,0.205,0.112,0.074,west-southwest,2.9,No
2023/07/13,03:50,0.141,0.130,0.205,0.195,0.206,0.113,0.074,west-southwest,2.0,No
2023/07/13,04:00,0.141,0.132,0.203,0.194,0.209,0.113,0.074,west-southwest,3.5,No
2023/07/13,04:10,0.143,0.131,0.205,0.197,0.205,0.113,0.074,west-southwest,3.1,No
2023/07/13,04:20,0.142,0.130,0.205,0.196,0.205,0.113,0.074,southwest,1.3,No
2023/07/13,04:30,0.141,0.132,0.204,0.194,0.205,0.114,0.074,south-southeast,1.1,No
2023/07/13,04:40,0.143,0.131,0.203,0.198,0.207,0.113,0.074,south,2.3,No
2023/07/13,04:50,0.141,0.130,0.206,0.195,0.207,0.114,0.074,southwest,1.8,No
2023/07/13,05:00,0.141,0.132,0.203,0.193,0.205,0.113,0.074,south,1.4,No
2023/07/13,05:10,0.143,0.130,0.203,0.195,0.207,0.113,0.074,-,CALM,No
2023/07/13,05:20,0.143,0.129,0.205,0.198,0.208,0.113,0.074,north,0.6,No
2023/07/13,05:30,0.141,0.130,0.204,0.195,0.205,0.113,0.073,west-northwest,1.1,No
2023/07/13,05:40,0.141,0.131,0.203,0.195,0.203,0.112,0.074,west,2.6,No
2023/07/13,05:50,0.143,0.130,0.205,0.197,0.207,0.113,0.074,west-northwest,1.2,No
2023/07/13,06:00,0.142,0.131,0.204,0.196,0.208,0.114,0.073,west,2.0,No
2023/07/13,06:10,0.140,0.130,0.202,0.194,0.205,0.114,0.073,southwest,2.9,No
2023/07/13,06:20,0.142,0.131,0.203,0.195,0.204,0.113,0.074,west-southwest,1.3,No
2023/07/13,06:30,0.143,0.130,0.205,0.197,0.204,0.113,0.075,-,CALM,No
2023/07/13,06:40,0.141,0.130,0.204,0.196,0.204,0.114,0.073,-,CALM,No
2023/07/13,06:50,0.141,0.131,0.203,0.194,0.207,0.113,0.074,east,0.7,No
2023/07/13,07:00,0.140,0.131,0.201,0.194,0.209,0.113,0.073,east,0.9,No
2023/07/13,07:10,0.143,0.130,0.205,0.194,0.206,0.113,0.072,east,1.3,No
2023/07/13,07:20,0.143,0.129,0.205,0.196,0.205,0.113,0.072,-,CALM,No
2023/07/13,07:30,0.141,0.129,0.204,0.197,0.205,0.113,0.073,-,CALM,No
2023/07/13,07:40,0.141,0.130,0.204,0.195,0.203,0.113,0.073,south-southeast,1.5,No
2023/07/13,07:50,0.141,0.129,0.203,0.194,0.203,0.114,0.073,-,CALM,No
2023/07/13,08:00,0.143,0.130,0.203,0.195,0.204,0.114,0.073,east,1.0,No
2023/07/13,08:10,0.142,0.130,0.204,0.195,0.203,0.113,0.073,east,1.4,No
2023/07/13,08:20,0.141,0.130,0.203,0.194,0.204,0.113,0.072,east-southeast,1.3,No
2023/07/13,08:30,0.141,0.130,0.202,0.195,0.205,0.114,0.074,east-southeast,1.1,No
2023/07/13,08:40,0.141,0.130,0.204,0.195,0.206,0.112,0.074,-,CALM,No
2023/07/13,08:50,0.141,0.130,0.204,0.194,0.207,0.113,0.074,west-southwest,0.9,No
2023/07/13,09:00,-,-,-,-,-,-,-,-,-,-
2023/07/13,09:10,0.140,0.130,0.204,0.195,0.207,0.113,0.073,-,CALM,No
2023/07/13,09:20,0.140,0.130,0.204,0.196,0.207,0.113,0.073,south-southeast,1.0,No
2023/07/13,09:30,0.141,0.132,0.205,0.197,0.207,0.114,0.073,southeast,1.4,No
2023/07/13,09:40,0.142,0.131,0.204,0.195,0.208,0.114,0.073,-,CALM,No
2023/07/13,09:50,0.141,0.131,0.204,0.197,0.209,0.113,0.073,southeast,1.5,No
2023/07/13,10:00,0.143,0.131,0.206,0.198,0.208,0.113,0.074,southeast,1.1,No
2023/07/13,10:10,0.143,0.132,0.207,0.199,0.207,0.114,0.074,southeast,1.6,No
2023/07/13,10:20,0.143,0.133,0.206,0.198,0.209,0.114,0.074,southeast,1.4,No
2023/07/13,10:30,0.142,0.132,0.206,0.198,0.208,0.114,0.074,southeast,2.7,No
2023/07/13,10:40,0.142,0.133,0.206,0.198,0.209,0.114,0.074,south-southeast,3.3,No
2023/07/13,10:50,0.143,0.130,0.206,0.198,0.208,0.113,0.073,south,2.6,No
2023/07/13,11:00,0.143,0.131,0.205,0.197,0.208,0.113,0.074,south,3.5,No
2023/07/13,11:10,0.144,0.131,0.205,0.197,0.207,0.113,0.073,south,3.2,No
2023/07/13,11:20,0.143,0.131,0.206,0.199,0.207,0.113,0.074,south,2.2,No
2023/07/13,11:30,0.143,0.132,0.206,0.199,0.207,0.115,0.074,south-southeast,0.9,No
2023/07/13,11:40,0.143,0.131,0.206,0.198,0.208,0.114,0.075,south-southwest,0.7,No
2023/07/13,11:50,0.144,0.132,0.207,0.198,0.208,0.114,0.075,east,1.0,No
2023/07/13,12:00,0.143,0.131,0.206,0.197,0.207,0.115,0.074,south-southwest,1.2,No
2023/07/13,12:10,0.142,0.132,0.205,0.196,0.208,0.114,0.075,-,CALM,No
2023/07/13,12:20,0.143,0.131,0.205,0.197,0.207,0.113,0.073,west,0.6,No
2023/07/13,12:30,0.142,0.131,0.204,0.196,0.207,0.114,0.073,-,CALM,No
2023/07/13,12:40,0.142,0.131,0.204,0.196,0.206,0.114,0.074,west,2.8,No
2023/07/13,12:50,0.142,0.131,0.204,0.197,0.205,0.113,0.074,west,3.7,No
2023/07/13,13:00,0.144,0.132,0.205,0.197,0.208,0.113,0.074,west,5.2,No
2023/07/13,13:10,0.143,0.132,0.206,0.198,0.208,0.114,0.075,west-northwest,4.5,No
2023/07/13,13:20,0.144,0.131,0.206,0.197,0.209,0.114,0.073,west,6.0,No
2023/07/13,13:30,0.144,0.134,0.207,0.199,0.208,0.113,0.075,west,5.6,No
2023/07/13,13:40,0.143,0.133,0.208,0.199,0.209,0.114,0.075,west,3.9,No
2023/07/13,13:50,0.143,0.133,0.207,0.199,0.209,0.115,0.075,west,4.5,No
2023/07/13,14:00,0.144,0.133,0.208,0.200,0.209,0.114,0.075,west,4.7,No
2023/07/13,14:10,0.144,0.133,0.206,0.201,0.208,0.115,0.075,west,3.5,No
2023/07/13,14:20,0.145,0.133,0.206,0.199,0.209,0.115,0.075,northwest,3.5,No
2023/07/13,14:30,0.144,0.133,0.207,0.199,0.208,0.115,0.074,northwest,5.1,No
2023/07/13,14:40,0.143,0.133,0.206,0.198,0.208,0.114,0.075,northwest,3.3,No
2023/07/13,14:50,0.143,0.132,0.207,0.197,0.208,0.115,0.075,west-northwest,3.7,No
2023/07/13,15:00,0.143,0.132,0.208,0.198,0.207,0.114,0.074,northwest,4.9,No
2023/07/13,15:10,0.144,0.132,0.207,0.198,0.207,0.113,0.075,northwest,3.8,No
2023/07/13,15:20,0.143,0.132,0.206,0.198,0.208,0.114,0.074,northwest,3.5,No
2023/07/13,15:30,0.143,0.132,0.206,0.197,0.207,0.114,0.074,northwest,3.0,No
2023/07/13,15:40,0.143,0.131,0.205,0.197,0.208,0.114,0.073,north-northwest,3.8,No
2023/07/13,15:50,0.143,0.132,0.205,0.198,0.206,0.114,0.074,northwest,3.6,No
2023/07/13,16:00,0.143,0.132,0.206,0.198,0.208,0.114,0.074,north-northeast,4.2,No
2023/07/13,16:10,0.143,0.132,0.205,0.197,0.207,0.114,0.074,north-northeast,3.1,Yes
2023/07/13,16:20,0.143,0.131,0.206,0.197,0.208,0.115,0.073,northeast,3.5,No
2023/07/13,16:30,0.143,0.130,0.208,0.197,0.208,0.115,0.074,east-northeast,2.9,No
2023/07/13,16:40,0.142,0.132,0.206,0.198,0.207,0.114,0.074,east-northeast,2.7,No
2023/07/13,16:50,0.144,0.132,0.206,0.198,0.208,0.114,0.074,east-northeast,0.8,No
2023/07/13,17:00,0.144,0.131,0.206,0.198,0.207,0.115,0.074,north-northeast,0.6,No
2023/07/13,17:10,0.143,0.131,0.206,0.198,0.206,0.115,0.073,northeast,1.9,No
2023/07/13,17:20,0.142,0.132,0.205,0.197,0.207,0.115,0.074,east-northeast,0.6,No
2023/07/13,17:30,0.142,0.131,0.205,0.196,0.205,0.114,0.074,northeast,0.6,No
2023/07/13,17:40,0.143,0.131,0.205,0.197,0.206,0.113,0.074,east-northeast,1.5,No
2023/07/13,17:50,0.142,0.131,0.207,0.197,0.207,0.114,0.074,east-northeast,1.8,No
2023/07/13,18:00,0.142,0.131,0.206,0.196,0.206,0.114,0.074,northeast,2.2,No
2023/07/13,18:10,0.144,0.131,0.206,0.197,0.207,0.114,0.074,east-northeast,0.9,No
2023/07/13,18:20,0.143,0.132,0.206,0.198,0.207,0.114,0.074,-,CALM,No
2023/07/13,18:30,0.143,0.130,0.206,0.201,0.207,0.115,0.074,-,CALM,Yes
2023/07/13,18:40,0.143,0.132,0.209,0.200,0.206,0.114,0.075,northeast,1.3,No
2023/07/13,18:50,0.142,0.133,0.209,0.198,0.205,0.114,0.075,-,CALM,No
2023/07/13,19:00,0.143,0.132,0.207,0.198,0.206,0.115,0.073,north-northeast,1.7,No
2023/07/13,19:10,0.145,0.131,0.207,0.198,0.206,0.115,0.073,north-northeast,2.2,No
2023/07/13,19:20,0.143,0.133,0.207,0.200,0.210,0.114,0.074,north-northeast,2.1,No
2023/07/13,19:30,0.142,0.133,0.210,0.199,0.209,0.114,0.075,north-northeast,2.0,No
2023/07/13,19:40,0.143,0.132,0.209,0.197,0.208,0.115,0.074,northeast,1.6,No
2023/07/13,19:50,0.144,0.131,0.206,0.197,0.206,0.115,0.074,east-northeast,1.7,No
2023/07/13,20:00,0.144,0.133,0.207,0.200,0.208,0.114,0.074,north-northeast,0.6,No
2023/07/13,20:10,0.143,0.133,0.209,0.198,0.210,0.114,0.075,east-northeast,1.1,No
2023/07/13,20:20,0.143,0.132,0.207,0.198,0.209,0.114,0.075,east,1.5,No
2023/07/13,20:30,0.145,0.132,0.206,0.199,0.206,0.114,0.074,east-northeast,1.3,No
2023/07/13,20:40,0.144,0.133,0.209,0.200,0.208,0.113,0.075,north-northeast,0.8,No
2023/07/13,20:50,0.143,0.132,0.208,0.198,0.210,0.114,0.074,-,CALM,No
2023/07/13,21:00,0.143,0.131,0.207,0.198,0.209,0.115,0.074,-,CALM,No
2023/07/13,21:10,0.144,0.133,0.207,0.200,0.207,0.114,0.074,-,CALM,No
2023/07/13,21:20,0.143,0.133,0.210,0.199,0.208,0.114,0.075,-,CALM,No
2023/07/13,21:30,0.143,0.132,0.208,0.197,0.209,0.114,0.074,east-southeast,0.7,No
2023/07/13,21:40,0.145,0.132,0.206,0.199,0.208,0.114,0.074,-,CALM,No
2023/07/13,21:50,0.144,0.133,0.208,0.200,0.206,0.113,0.075,-,CALM,Yes
2023/07/13,22:00,0.143,0.131,0.208,0.197,0.209,0.115,0.074,-,CALM,Yes
2023/07/13,22:10,0.143,0.131,0.207,0.198,0.210,0.114,0.074,-,CALM,Yes
2023/07/13,22:20,0.144,0.133,0.207,0.200,0.209,0.115,0.075,-,CALM,Yes
2023/07/13,22:30,0.145,0.133,0.209,0.199,0.207,0.115,0.075,south,0.9,Yes
2023/07/13,22:40,0.143,0.132,0.207,0.198,0.209,0.115,0.075,south,2.0,Yes
2023/07/13,22:50,0.144,0.134,0.208,0.200,0.210,0.115,0.074,south,3.3,No
2023/07/13,23:00,0.145,0.134,0.211,0.199,0.208,0.115,0.076,south,4.8,No
2023/07/13,23:10,0.144,0.133,0.209,0.198,0.208,0.116,0.075,south,5.4,No
2023/07/13,23:20,0.143,0.132,0.207,0.199,0.212,0.115,0.075,south-southwest,4.7,No
2023/07/13,23:30,0.145,0.133,0.211,0.200,0.209,0.114,0.075,south-southwest,4.8,No
2023/07/13,23:40,0.144,0.132,0.207,0.199,0.208,0.115,0.075,south-southwest,4.4,No
2023/07/13,23:50,0.142,0.131,0.207,0.198,0.206,0.114,0.074,south-southwest,4.8,No
